Location: Newark
(33.6333°S, 78.8500°W)
Time: 23:20:34
(UTC+00:00)

Explorer 11/Cluster Stage 4 - Visible Passes

Search period start: 23 October 2019 00:00
Search period end: 02 November 2019 00:00
Orbit: 467 x 1259 km, 28.8° (Epoch: 22 October)

Date Brightness Start Highest point End Pass type
(mag) Time Alt. Az. Time Alt. Az. Time Alt. Az.
23 Oct 8.0 00:20:13 10° NW 00:27:21 41° NNE 00:33:48 14° E visible
23 Oct 7.5 02:08:24 10° WNW 02:15:58 60° N 02:15:58 60° N visible
23 Oct 9.7 03:57:36 10° W 03:58:07 12° W 03:58:07 12° W visible
24 Oct 7.9 00:09:21 10° NW 00:16:26 44° NNE 00:23:58 11° E visible
24 Oct 7.4 01:57:35 10° WNW 02:05:33 62° N 02:06:07 61° NNE visible
24 Oct 9.4 03:46:45 10° W 03:48:16 16° W 03:48:16 16° W visible
24 Oct 7.8 23:58:33 10° NW 00:05:33 47° NNE 00:13:21 10° E visible
25 Oct 7.5 01:46:49 10° WNW 01:54:40 63° N 01:56:08 55° NE visible
25 Oct 9.2 03:35:56 10° W 03:38:17 20° W 03:38:17 20° W visible
25 Oct 7.8 23:47:48 10° WNW 23:54:40 49° NNE 00:02:30 10° E visible
26 Oct 7.5 01:36:05 10° WNW 01:43:48 63° N 01:46:05 47° NE visible
26 Oct 9.0 03:25:09 10° W 03:28:13 24° WNW 03:28:13 24° WNW visible
27 Oct 7.5 01:25:22 10° W 01:32:56 62° N 01:35:56 40° ENE visible
27 Oct 8.8 03:14:24 10° W 03:18:05 28° WNW 03:18:05 28° WNW visible
28 Oct 7.5 01:14:41 10° W 01:22:05 61° N 01:25:45 34° ENE visible
28 Oct 8.6 03:03:42 10° W 03:07:53 30° WNW 03:07:53 30° WNW visible
29 Oct 7.6 01:04:02 10° W 01:11:14 59° N 01:15:32 29° ENE visible
29 Oct 8.5 02:53:01 10° W 02:57:40 32° WNW 02:57:40 32° WNW visible
30 Oct 7.6 00:53:25 10° W 01:00:24 57° N 01:05:18 24° ENE visible
30 Oct 8.4 02:42:23 10° W 02:47:26 32° NW 02:47:26 32° NW visible
31 Oct 7.6 00:42:50 10° W 00:49:34 54° N 00:55:04 20° ENE visible
31 Oct 8.4 02:31:49 10° W 02:37:11 31° NW 02:37:11 31° NW visible
01 Nov 7.7 00:32:16 10° W 00:38:45 50° N 00:44:49 16° ENE visible
01 Nov 8.5 02:21:19 10° W 02:26:56 29° NNW 02:26:56 29° NNW visible
